Location: Gleizolles
(44.4833°N, 6.7667°E)
Time: 11:04:24
(UTC+00:00)

Altair - Pass Details

Date: 30 June 2024
Orbit: 1502 x 1682 km, 47.2° (Epoch: 20 July)

Event Time Altitude Azimuth Distance (km) Brightness Sun altitude
Rises 00:01:43 0° 245° (WSW) 4,629 - -22.1°
Exits shadow 00:02:16 - 245° (WSW) 4,452 9.6 -22.1°
Reaches altitude 10° 00:04:43 10° 245° (WSW) 3,649 9.2 -22.1°
Maximum altitude 00:13:54 85° 158° (SSE) 1,524 7.3 -21.8°
Drops below altitude 10° 00:23:19 10° 71° (ENE) 3,733 9.9 -21.5°
Sets 00:26:25 0° 71° (ENE) 4,740 10.5 -21.4°
